Location: 5810 Zion Rd, Cleves, OH 45002, USA
(39.1922°N, 84.7113°W)
Time: 10:10:00
(UTC-05:00)

Courier 1B Rocket - Pass Details

Date: 15 December 2019
Orbit: 920 x 1202 km, 28.2° (Epoch: 23 January)

Event Time Altitude Azimuth Distance (km) Brightness Sun altitude
Rises 09:02:51 0° 260° (W) 3,809 7.7 10.4°
Reaches altitude 10° 09:06:15 10° 246° (WSW) 2,801 7.2 10.9°
Maximum altitude 09:11:14 22° 198° (SSW) 1,995 7.1 11.6°
Drops below altitude 10° 09:16:01 10° 150° (SSE) 2,666 9.2 12.3°
Sets 09:19:10 0° 135° (SE) 3,579 10.1 12.7°
